TimeCDT,TemperatureF,Dew PointF,Humidity,Sea Level PressureIn,VisibilityMPH,Wind Direction,Wind SpeedMPH,Gust SpeedMPH,PrecipitationIn,Events,Conditions,WindDirDegrees,DateUTC
12:53 AM,17.1,7.0,65,30.28,10.0,NNW,20.7,31.1,N/A,,Clear,330,2013-03-20 05:53:00
1:53 AM,16.0,7.0,68,30.29,10.0,NW,21.9,31.1,N/A,,Clear,320,2013-03-20 06:53:00
2:53 AM,15.1,7.0,70,30.29,10.0,NW,21.9,27.6,N/A,,Clear,320,2013-03-20 07:53:00
3:53 AM,15.1,7.0,70,30.29,10.0,NW,26.5,34.5,N/A,,Partly Cloudy,310,2013-03-20 08:53:00
4:53 AM,14.0,7.0,74,30.29,10.0,NW,21.9,31.1,N/A,,Partly Cloudy,310,2013-03-20 09:53:00
5:05 AM,14.0,6.8,73,30.25,10.0,NW,19.6,28.8,N/A,,Mostly Cloudy,310,2013-03-20 10:05:00
5:30 AM,12.2,6.8,79,30.25,10.0,NW,19.6,-,N/A,,Partly Cloudy,310,2013-03-20 10:30:00
5:53 AM,12.9,6.1,74,30.30,10.0,NW,19.6,-,N/A,,Clear,310,2013-03-20 10:53:00
6:53 AM,12.0,3.0,67,30.32,10.0,NW,21.9,26.5,N/A,,Clear,310,2013-03-20 11:53:00
7:53 AM,12.0,3.9,70,30.33,10.0,WNW,19.6,26.5,N/A,,Clear,300,2013-03-20 12:53:00
8:53 AM,14.0,5.0,67,30.32,10.0,NW,24.2,31.1,N/A,,Clear,310,2013-03-20 13:53:00
9:53 AM,16.0,5.0,62,30.32,10.0,NNW,25.3,32.2,N/A,,Clear,330,2013-03-20 14:53:00
10:53 AM,18.0,6.1,60,30.32,10.0,NNW,25.3,33.4,N/A,,Clear,330,2013-03-20 15:53:00
11:53 AM,19.9,8.1,60,30.32,10.0,NW,24.2,31.1,N/A,,Partly Cloudy,310,2013-03-20 16:53:00
12:53 PM,21.0,8.1,57,30.30,10.0,NW,25.3,33.4,N/A,,Clear,320,2013-03-20 17:53:00
1:53 PM,21.9,10.0,60,30.27,10.0,NW,23.0,31.1,N/A,,Mostly Cloudy,310,2013-03-20 18:53:00
2:53 PM,23.0,10.9,60,30.24,10.0,WNW,24.2,31.1,N/A,,Mostly Cloudy,300,2013-03-20 19:53:00
3:53 PM,24.1,12.0,60,30.22,10.0,WNW,24.2,32.2,N/A,,Overcast,300,2013-03-20 20:53:00
4:53 PM,25.0,12.0,58,30.21,10.0,WNW,21.9,-,N/A,,Mostly Cloudy,300,2013-03-20 21:53:00
5:53 PM,24.1,12.0,60,30.20,10.0,NW,20.7,27.6,N/A,,Mostly Cloudy,310,2013-03-20 22:53:00
6:53 PM,21.9,10.9,63,30.19,10.0,NW,21.9,27.6,N/A,,Partly Cloudy,310,2013-03-20 23:53:00
7:53 PM,19.9,10.9,68,30.19,10.0,NW,11.5,-,N/A,,Clear,320,2013-03-21 00:53:00
8:53 PM,19.0,10.9,71,30.18,10.0,NW,11.5,-,N/A,,Clear,310,2013-03-21 01:53:00
9:53 PM,18.0,10.9,74,30.18,10.0,NW,8.1,-,N/A,,Clear,320,2013-03-21 02:53:00
10:53 PM,17.1,9.0,71,30.18,10.0,North,11.5,-,N/A,,Clear,350,2013-03-21 03:53:00
11:53 PM,16.0,9.0,74,30.18,10.0,North,10.4,-,N/A,,Clear,350,2013-03-21 04:53:00